User: anonymous   Login
Location: Wawayanda State Park
(41.1833°N, 74.4333°W)
Time: 20:52:04
(UTC-04:00)
Language:

Landsat 7 - Orbit

View from above orbital plane
View from above orbital plane
View from above satellite
View from above satellite

Ground track
Ground track

The orbit data is extracted from the following two-line orbital elements,

1 25682U 99020A   17207.19880658 +.00000081 +00000-0 +28074-4 0  9999
2 25682 098.2095 277.8138 0000771 093.9556 266.1759 14.57113832972274
Epoch (UTC): 26 July 2017 04:46:16
Eccentricity: 0.0000771
inclination: 98.2095°
perigee height: 702 km
apogee height: 703 km
right ascension of ascending node: 277.8138°
argument of perigee: 93.9556°
revolutions per day: 14.57113832
mean anomaly at epoch: 266.1759°
orbit number at epoch: 97227

The dashed part of the orbit path shows where the satellite is in the earth's shadow,  

DLR